Flag for Germany Weather past 2 weeks in Hoyerswerda, Saxony, Germany

Now
47 °F

Fog.


Feels Like: 47 °F
Forecast: 42 / 56 °F
Wind: 1 mph from South

Location: Cottbus

Current Time: Oct 26, 2014 at 5:55:03 AM

Latest Report: Oct 26, 2014 at 5:00 AM


Visibility: 3 mi

Pressure: 30.28 "Hg

Humidity: 92%

Dew point: 45 °F

Location of HoyerswerdaLocation

Historic Weather in Hoyerswerda — Graph

°F

Hoyerswerda temperature yesterday

Maximum temperature yesterday: 54 °F (at 3:00 PM)
Minimum temperature yesterday: 36 °F (at 5:00 AM)
Average temperature yesterday: 44 °F

Past Weeks' High & Low Weather Summary

 TemperatureHumidityPressure
High74 °F (Oct 19, 3:00 PM)100% (Oct 12, 5:00 AM)30.31 "Hg (Oct 12, 5:00 AM)
Low36 °F (Oct 25, 5:00 AM)56% (Oct 19, 2:00 PM)29.44 "Hg (Oct 22, 12:00 AM)
Average55 °F88%29.94 "Hg
* Reported Oct 11 5:00 AM — Oct 26 4:00 AM, Hoyerswerda, Weather by CustomWeather, © 2014

Note: Actual official high and low records may vary slightly from our data, if they occured in-between our weather recording intervals... More about our weather records

Advertising

Hoyerswerda weather history for previous 24 hours

 ConditionsComfort  
Time TempWeatherWind HumidityBarometerVisibility
4:00 AM
Oct 26
47 °FFog.2 mph94%30.27 "Hg3 mi
3:00 AM47 °FFog.1 mph95%30.27 "Hg3 mi
2:00 AM47 °FFog.2 mph95%30.26 "Hg2 mi
2:00 AM47 °FOvercast.2 mph96%30.25 "Hg2 mi
1:00 AM46 °FLow clouds.2 mph97%30.24 "Hg2 mi
12:00 AM46 °FLight freezing rain. Low clouds.2 mph97%30.23 "Hg1 mi
11:00 PM
Oct 25
47 °FDrizzle. Low clouds.2 mph86%30.22 "Hg4 mi
10:00 PM46 °FOvercast.2 mph84%30.21 "Hg6 mi
9:00 PM46 °FOvercast.2 mph83%30.20 "Hg6 mi
8:00 PM47 °FOvercast.2 mph82%30.19 "Hg7 mi
7:00 PM48 °FOvercast.3 mph80%30.18 "Hg7 mi
6:00 PM49 °FOvercast.3 mph78%30.17 "Hg7 mi
5:00 PM51 °FOvercast.3 mph74%30.16 "Hg7 mi
4:00 PM53 °FOvercast.3 mph70%30.15 "Hg8 mi
3:00 PM54 °FOvercast.3 mph69%30.14 "Hg7 mi
2:00 PM52 °FOvercast.2 mph70%30.15 "Hg8 mi
1:00 PM47 °FOvercast.1 mph76%30.16 "Hg5 mi
12:00 PM43 °FFog.2 mph85%30.17 "Hg4 mi
11:00 AM40 °FFog.3 mph93%30.18 "Hg2 mi
10:00 AM38 °FFog.2 mph97%30.17 "Hg2 mi
9:00 AM37 °FLow clouds.2 mph100%30.18 "Hg1 mi
8:00 AM38 °FLow clouds.2 mph98%30.17 "Hg2 mi
7:00 AM38 °FLow clouds.3 mph100%30.16 "Hg1 mi
6:00 AM37 °FLow clouds.2 mph100%30.18 "Hg0 mi
5:00 AM36 °FFog.2 mph98%30.19 "Hg1 mi
Weather by CustomWeather, © 2014

See weather overviewHow to use our weather pages